Year,Month,Day,Hour,Minute,Value (Times are PST for barometer in hPa)
2016,03,05,00,00,996.29
2016,03,05,00,01,996.26
2016,03,05,00,02,996.26
2016,03,05,00,03,996.24
2016,03,05,00,04,996.21
2016,03,05,00,05,996.21
2016,03,05,00,06,996.19
2016,03,05,00,07,996.14
2016,03,05,00,08,996.09
2016,03,05,00,09,996.02
2016,03,05,00,10,995.97
2016,03,05,00,11,995.97
2016,03,05,00,12,995.96
2016,03,05,00,13,995.96
2016,03,05,00,14,995.92
2016,03,05,00,15,995.85
2016,03,05,00,16,995.84
2016,03,05,00,17,995.82
2016,03,05,00,18,995.80
2016,03,05,00,19,995.77
2016,03,05,00,20,995.73
2016,03,05,00,21,995.73
2016,03,05,00,22,995.75
2016,03,05,00,23,995.72
2016,03,05,00,24,995.65
2016,03,05,00,25,995.65
2016,03,05,00,26,995.65
2016,03,05,00,27,995.60
2016,03,05,00,28,995.55
2016,03,05,00,29,995.52
2016,03,05,00,30,995.48
2016,03,05,00,31,995.45
2016,03,05,00,32,995.43
2016,03,05,00,33,995.38
2016,03,05,00,34,995.33
2016,03,05,00,35,995.33
2016,03,05,00,36,995.34
2016,03,05,00,37,995.33
2016,03,05,00,38,995.24
2016,03,05,00,39,995.21
2016,03,05,00,40,995.24
2016,03,05,00,41,995.26
2016,03,05,00,42,995.23
2016,03,05,00,43,995.16
2016,03,05,00,44,995.11
2016,03,05,00,45,995.08
2016,03,05,00,46,995.06
2016,03,05,00,47,995.06
2016,03,05,00,48,995.01
2016,03,05,00,49,994.93
2016,03,05,00,50,994.86
2016,03,05,00,51,994.83
2016,03,05,00,52,994.90
2016,03,05,00,53,994.96
2016,03,05,00,54,994.89
2016,03,05,00,55,994.79
2016,03,05,00,56,994.77
2016,03,05,00,57,994.79
2016,03,05,00,58,994.79
2016,03,05,00,59,994.79
2016,03,05,01,00,994.76
2016,03,05,01,01,994.69
2016,03,05,01,02,994.73
2016,03,05,01,03,994.77
2016,03,05,01,04,994.73
2016,03,05,01,05,994.75
2016,03,05,01,06,994.78
2016,03,05,01,07,994.81
2016,03,05,01,08,994.74
2016,03,05,01,09,994.63
2016,03,05,01,10,994.60
2016,03,05,01,11,994.60
2016,03,05,01,12,994.57
2016,03,05,01,13,994.52
2016,03,05,01,14,994.51
2016,03,05,01,15,994.56
2016,03,05,01,16,994.55
2016,03,05,01,17,994.52
2016,03,05,01,18,994.50
2016,03,05,01,19,994.45
2016,03,05,01,20,994.44
2016,03,05,01,21,994.47
2016,03,05,01,22,994.42
2016,03,05,01,23,994.37
2016,03,05,01,24,994.35
2016,03,05,01,25,994.32
2016,03,05,01,26,994.28
2016,03,05,01,27,994.25
2016,03,05,01,28,994.18
2016,03,05,01,29,994.14
2016,03,05,01,30,994.16
2016,03,05,01,31,994.18
2016,03,05,01,32,994.18
2016,03,05,01,33,994.15
2016,03,05,01,34,994.09
2016,03,05,01,35,994.09
2016,03,05,01,36,994.11
2016,03,05,01,37,994.06
2016,03,05,01,38,994.02
2016,03,05,01,39,994.01
2016,03,05,01,40,993.99
2016,03,05,01,41,994.05
2016,03,05,01,42,994.16
2016,03,05,01,43,994.24
2016,03,05,01,44,994.26
2016,03,05,01,45,994.26
2016,03,05,01,46,994.28
2016,03,05,01,47,994.18
2016,03,05,01,48,994.04
2016,03,05,01,49,994.02
2016,03,05,01,50,994.04
2016,03,05,01,51,994.07
2016,03,05,01,52,994.09
2016,03,05,01,53,994.09
2016,03,05,01,54,994.14
2016,03,05,01,55,994.11
2016,03,05,01,56,993.98
2016,03,05,01,57,993.94
2016,03,05,01,58,993.99
2016,03,05,01,59,993.98
2016,03,05,02,00,993.94
2016,03,05,02,01,993.94
2016,03,05,02,02,993.94
2016,03,05,02,03,993.93
2016,03,05,02,04,993.92
2016,03,05,02,05,993.87
2016,03,05,02,06,993.80
2016,03,05,02,07,993.81
2016,03,05,02,08,993.77
2016,03,05,02,09,993.72
2016,03,05,02,10,993.70
2016,03,05,02,11,993.71
2016,03,05,02,12,993.61
2016,03,05,02,13,993.58
2016,03,05,02,14,993.63
2016,03,05,02,15,993.66
2016,03,05,02,16,993.70
2016,03,05,02,17,993.70
2016,03,05,02,18,993.69
2016,03,05,02,19,993.68
2016,03,05,02,20,993.76
2016,03,05,02,21,993.82
2016,03,05,02,22,993.80
2016,03,05,02,23,993.85
2016,03,05,02,24,993.91
2016,03,05,02,25,993.91
2016,03,05,02,26,993.92
2016,03,05,02,27,993.95
2016,03,05,02,28,993.96
2016,03,05,02,29,993.91
2016,03,05,02,30,993.89
2016,03,05,02,31,993.89
2016,03,05,02,32,993.90
2016,03,05,02,33,993.91
2016,03,05,02,34,993.87
2016,03,05,02,35,993.83
2016,03,05,02,36,993.76
2016,03,05,02,37,993.74
2016,03,05,02,38,993.74
2016,03,05,02,39,993.74
2016,03,05,02,40,993.75
2016,03,05,02,41,993.81
2016,03,05,02,42,993.89
2016,03,05,02,43,993.89
2016,03,05,02,44,993.90
2016,03,05,02,45,993.93
2016,03,05,02,46,993.91
2016,03,05,02,47,993.91
2016,03,05,02,48,993.94
2016,03,05,02,49,993.97
2016,03,05,02,50,994.00
2016,03,05,02,51,994.09
2016,03,05,02,52,994.17
2016,03,05,02,53,994.21
2016,03,05,02,54,994.18
2016,03,05,02,55,994.16
2016,03,05,02,56,994.19
2016,03,05,02,57,994.13
2016,03,05,02,58,994.09
2016,03,05,02,59,994.11
2016,03,05,03,00,994.09
2016,03,05,03,01,994.11
2016,03,05,03,02,994.09
2016,03,05,03,06,994.16
2016,03,05,03,07,994.11
2016,03,05,03,08,994.10
2016,03,05,03,09,994.16
2016,03,05,03,10,994.20
2016,03,05,03,11,994.28
2016,03,05,03,12,994.34
2016,03,05,03,13,994.35
2016,03,05,03,14,994.37
2016,03,05,03,15,994.34
2016,03,05,03,16,994.38
2016,03,05,03,17,994.39
2016,03,05,03,18,994.49
2016,03,05,03,19,994.53
2016,03,05,03,20,994.47
2016,03,05,03,21,994.51
2016,03,05,03,22,994.57
2016,03,05,03,23,994.61
2016,03,05,03,24,994.62
2016,03,05,03,25,994.56
2016,03,05,03,26,994.58
2016,03,05,03,27,994.66
2016,03,05,03,28,994.72
2016,03,05,03,29,994.75
2016,03,05,03,30,994.78
2016,03,05,03,31,994.85
2016,03,05,03,32,995.02
2016,03,05,03,33,995.01
2016,03,05,03,34,994.98
2016,03,05,03,35,995.03
2016,03,05,03,36,995.03
2016,03,05,03,37,995.07
2016,03,05,03,38,995.18
2016,03,05,03,39,995.21
2016,03,05,03,40,995.23
2016,03,05,03,41,995.30
2016,03,05,03,42,995.33
2016,03,05,03,43,995.33
2016,03,05,03,44,995.28
2016,03,05,03,45,995.37
2016,03,05,03,46,995.39
2016,03,05,03,47,995.39
2016,03,05,03,48,995.46
2016,03,05,03,49,995.50
2016,03,05,03,50,995.50
2016,03,05,03,51,995.56
2016,03,05,03,52,995.60
2016,03,05,03,53,995.60
2016,03,05,03,54,995.60
2016,03,05,03,55,995.67
2016,03,05,03,56,995.72
2016,03,05,03,57,995.76
2016,03,05,03,58,995.81
2016,03,05,03,59,995.84
2016,03,05,04,00,995.92
2016,03,05,04,01,996.08
2016,03,05,04,02,996.16
2016,03,05,04,03,996.17
2016,03,05,04,04,996.15
2016,03,05,04,05,996.20
2016,03,05,04,06,996.22
2016,03,05,04,07,996.21
2016,03,05,04,08,996.18
2016,03,05,04,09,996.20
2016,03,05,04,10,996.21
2016,03,05,04,11,996.25
2016,03,05,04,12,996.28
2016,03,05,04,13,996.28
2016,03,05,04,14,996.28
2016,03,05,04,15,996.30
2016,03,05,04,16,996.35
2016,03,05,04,17,996.40
2016,03,05,04,18,996.41
2016,03,05,04,19,996.41
2016,03,05,04,20,996.43
2016,03,05,04,21,996.41
2016,03,05,04,22,996.35
2016,03,05,04,23,996.30
2016,03,05,04,24,996.26
2016,03,05,04,25,996.27
2016,03,05,04,26,996.25
2016,03,05,04,27,996.27
2016,03,05,04,28,996.28
2016,03,05,04,29,996.30
2016,03,05,04,30,996.31
2016,03,05,04,31,996.27
2016,03,05,04,32,996.27
2016,03,05,04,33,996.32
2016,03,05,04,34,996.34
2016,03,05,04,35,996.38
2016,03,05,04,36,996.41
2016,03,05,04,37,996.41
2016,03,05,04,38,996.41
2016,03,05,04,39,996.39
2016,03,05,04,40,996.35
2016,03,05,04,41,996.39
2016,03,05,04,42,996.43
2016,03,05,04,43,996.42
2016,03,05,04,44,996.41
2016,03,05,04,45,996.44
2016,03,05,04,46,996.47
2016,03,05,04,47,996.50
2016,03,05,04,48,996.51
2016,03,05,04,49,996.47
2016,03,05,04,50,996.45
2016,03,05,04,51,996.41
2016,03,05,04,52,996.40
2016,03,05,04,53,996.44
2016,03,05,04,54,996.51
2016,03,05,04,55,996.51
2016,03,05,04,56,996.50
2016,03,05,04,57,996.53
2016,03,05,04,58,996.55
2016,03,05,04,59,996.55
2016,03,05,05,00,996.53
2016,03,05,05,01,996.51
2016,03,05,05,02,996.49
2016,03,05,05,03,996.59
2016,03,05,05,04,996.56
2016,03,05,05,05,996.61
2016,03,05,05,06,996.68
2016,03,05,05,07,996.66
2016,03,05,05,08,996.62
2016,03,05,05,09,996.65
2016,03,05,05,10,996.71
2016,03,05,05,11,996.69
2016,03,05,05,12,996.68
2016,03,05,05,13,996.72
2016,03,05,05,14,996.69
2016,03,05,05,15,996.54
2016,03,05,05,16,996.63
2016,03,05,05,17,996.67
2016,03,05,05,18,996.68
2016,03,05,05,19,996.74
2016,03,05,05,20,996.81
2016,03,05,05,21,996.88
2016,03,05,05,22,996.82
2016,03,05,05,23,996.85
2016,03,05,05,24,996.91
2016,03,05,05,25,996.90
2016,03,05,05,26,996.86
2016,03,05,05,27,996.89
2016,03,05,05,28,996.92
2016,03,05,05,29,996.88
2016,03,05,05,30,996.89
2016,03,05,05,31,996.92
2016,03,05,05,32,996.90
2016,03,05,05,33,996.86
2016,03,05,05,34,996.93
2016,03,05,05,35,997.01
2016,03,05,05,36,997.02
2016,03,05,05,37,997.08
2016,03,05,05,38,997.15
2016,03,05,05,39,997.12
2016,03,05,05,40,997.14
2016,03,05,05,41,997.18
2016,03,05,05,42,997.19
2016,03,05,05,43,997.21
2016,03,05,05,44,997.25
2016,03,05,05,45,997.22
2016,03,05,05,46,997.23
2016,03,05,05,47,997.28
2016,03,05,05,48,997.25
2016,03,05,05,49,997.24
2016,03,05,05,50,997.26
2016,03,05,05,51,997.26
2016,03,05,05,52,997.26
2016,03,05,05,53,997.23
2016,03,05,05,54,997.25
2016,03,05,05,55,997.28
2016,03,05,05,56,997.24
2016,03,05,05,57,997.29
2016,03,05,05,58,997.33
2016,03,05,05,59,997.35
2016,03,05,06,00,997.34
2016,03,05,06,01,997.31
2016,03,05,06,02,997.34
2016,03,05,06,03,997.36
2016,03,05,06,04,997.38
2016,03,05,06,05,997.41
2016,03,05,06,06,997.48
2016,03,05,06,07,997.47
2016,03,05,06,08,997.46
2016,03,05,06,09,997.48
2016,03,05,06,10,997.52
2016,03,05,06,11,997.62
2016,03,05,06,12,997.69
2016,03,05,06,13,997.72
2016,03,05,06,14,997.69
2016,03,05,06,15,997.70
2016,03,05,06,16,997.69
2016,03,05,06,17,997.68
2016,03,05,06,18,997.70
2016,03,05,06,19,997.72
2016,03,05,06,20,997.77
2016,03,05,06,21,997.80
2016,03,05,06,22,997.82
2016,03,05,06,23,997.83
2016,03,05,06,24,997.96
2016,03,05,06,25,998.04
2016,03,05,06,26,998.04
2016,03,05,06,27,998.04
2016,03,05,06,28,998.04
2016,03,05,06,29,998.12
2016,03,05,06,30,998.17
2016,03,05,06,31,998.17
2016,03,05,06,32,998.22
2016,03,05,06,33,998.24
2016,03,05,06,34,998.18
2016,03,05,06,35,998.20
2016,03,05,06,36,998.20
2016,03,05,06,37,998.13
2016,03,05,06,38,998.07
2016,03,05,06,39,998.10
2016,03,05,06,40,998.14
2016,03,05,06,41,998.16
2016,03,05,06,42,998.23
2016,03,05,06,43,998.25
2016,03,05,06,44,998.22
2016,03,05,06,45,998.23
2016,03,05,06,46,998.26
2016,03,05,06,47,998.29
2016,03,05,06,48,998.31
2016,03,05,06,49,998.38
2016,03,05,06,50,998.36
2016,03,05,06,51,998.38
2016,03,05,06,52,998.35
2016,03,05,06,53,998.37
2016,03,05,06,54,998.47
2016,03,05,06,55,998.60
2016,03,05,06,56,998.65
2016,03,05,06,57,998.67
2016,03,05,06,58,998.70
2016,03,05,06,59,998.75
2016,03,05,07,00,998.76
2016,03,05,07,01,998.79
2016,03,05,07,02,998.84
2016,03,05,07,03,998.85
2016,03,05,07,04,998.89
2016,03,05,07,05,998.94
2016,03,05,07,06,998.95
2016,03,05,07,07,998.95
2016,03,05,07,08,998.93
2016,03,05,07,09,998.92
2016,03,05,07,10,998.96
2016,03,05,07,11,999.05
2016,03,05,07,12,999.09
2016,03,05,07,13,999.09
2016,03,05,07,14,999.11
2016,03,05,07,15,999.14
2016,03,05,07,16,999.19
2016,03,05,07,17,999.22
2016,03,05,07,18,999.20
2016,03,05,07,19,999.21
2016,03,05,07,20,999.20
2016,03,05,07,21,999.27
2016,03,05,07,22,999.22
2016,03,05,07,23,999.15
2016,03,05,07,24,999.18
2016,03,05,07,25,999.19
2016,03,05,07,26,999.17
2016,03,05,07,27,999.15
2016,03,05,07,28,999.15
2016,03,05,07,29,999.17
2016,03,05,07,30,999.19
2016,03,05,07,31,999.15
2016,03,05,07,32,999.18
2016,03,05,07,33,999.22
2016,03,05,07,34,999.20
2016,03,05,07,35,999.23
2016,03,05,07,36,999.26
2016,03,05,07,37,999.30
2016,03,05,07,38,999.36
2016,03,05,07,39,999.41
2016,03,05,07,40,999.41
2016,03,05,07,41,999.33
2016,03,05,07,42,999.29
2016,03,05,07,43,999.35
2016,03,05,07,44,999.39
2016,03,05,07,45,999.41
2016,03,05,07,46,999.49
2016,03,05,07,47,999.51
2016,03,05,07,48,999.55
2016,03,05,07,49,999.61
2016,03,05,07,50,999.61
2016,03,05,07,51,999.61
2016,03,05,07,52,999.65
2016,03,05,07,53,999.70
2016,03,05,07,54,999.73
2016,03,05,07,55,999.73
2016,03,05,07,56,999.71
2016,03,05,07,57,999.78
2016,03,05,07,58,999.79
2016,03,05,07,59,999.76
2016,03,05,08,00,999.76
2016,03,05,08,01,999.74
2016,03,05,08,02,999.75
2016,03,05,08,03,999.76
2016,03,05,08,04,999.80
2016,03,05,08,05,999.81
2016,03,05,08,06,999.76
2016,03,05,08,07,999.73
2016,03,05,08,08,999.75
2016,03,05,08,09,999.78
2016,03,05,08,10,999.84
2016,03,05,08,11,999.81
2016,03,05,08,12,999.83
2016,03,05,08,13,999.84
2016,03,05,08,14,999.85
2016,03,05,08,15,999.95
2016,03,05,08,16,999.96
2016,03,05,08,17,999.97
2016,03,05,08,18,1000.00
2016,03,05,08,19,1000.02
2016,03,05,08,20,999.97
2016,03,05,08,21,999.95
2016,03,05,08,22,1000.01
2016,03,05,08,23,1000.03
2016,03,05,08,24,1000.11
2016,03,05,08,25,1000.17
2016,03,05,08,26,1000.15
2016,03,05,08,27,1000.16
2016,03,05,08,28,1000.15
2016,03,05,08,29,1000.08
2016,03,05,08,30,1000.01
2016,03,05,08,31,1000.02
2016,03,05,08,32,1000.03
2016,03,05,08,33,1000.03
2016,03,05,08,34,999.99
2016,03,05,08,35,1000.01
2016,03,05,08,36,1000.05
2016,03,05,08,37,1000.05
2016,03,05,08,38,1000.01
2016,03,05,08,39,1000.02
2016,03,05,08,40,1000.01
2016,03,05,08,41,1000.04
2016,03,05,08,42,1000.09
2016,03,05,08,43,1000.10
2016,03,05,08,44,1000.12
2016,03,05,08,45,1000.17
2016,03,05,08,46,1000.22
2016,03,05,08,47,1000.30
2016,03,05,08,48,1000.32
2016,03,05,08,49,1000.35
2016,03,05,08,50,1000.37
2016,03,05,08,51,1000.41
2016,03,05,08,52,1000.42
2016,03,05,08,53,1000.45
2016,03,05,08,54,1000.48
2016,03,05,08,55,1000.54
2016,03,05,08,56,1000.60
2016,03,05,08,57,1000.61
2016,03,05,08,58,1000.61
2016,03,05,08,59,1000.65
2016,03,05,09,00,1000.62
2016,03,05,09,01,1000.56
2016,03,05,09,02,1000.56
2016,03,05,09,03,1000.56
2016,03,05,09,04,1000.50
2016,03,05,09,05,1000.46
2016,03,05,09,06,1000.40
2016,03,05,09,07,1000.37
2016,03,05,09,08,1000.37
2016,03,05,09,09,1000.35
2016,03,05,09,10,1000.38
2016,03,05,09,11,1000.37
2016,03,05,09,12,1000.34
2016,03,05,09,13,1000.38
2016,03,05,09,14,1000.41
2016,03,05,09,15,1000.43
2016,03,05,09,16,1000.48
2016,03,05,09,17,1000.53
2016,03,05,09,18,1000.54
2016,03,05,09,19,1000.52
2016,03,05,09,20,1000.57
2016,03,05,09,21,1000.55
2016,03,05,09,22,1000.51
2016,03,05,09,23,1000.55
2016,03,05,09,24,1000.58
2016,03,05,09,25,1000.58
2016,03,05,09,26,1000.60
2016,03,05,09,27,1000.63
2016,03,05,09,28,1000.66
2016,03,05,09,29,1000.62
2016,03,05,09,30,1000.62
2016,03,05,09,31,1000.64
2016,03,05,09,32,1000.68
2016,03,05,09,33,1000.71
2016,03,05,09,34,1000.73
2016,03,05,09,35,1000.75
2016,03,05,09,36,1000.75
2016,03,05,09,37,1000.79
2016,03,05,09,38,1000.79
2016,03,05,09,39,1000.78
2016,03,05,09,40,1000.76
2016,03,05,09,41,1000.81
2016,03,05,09,42,1000.83
2016,03,05,09,43,1000.83
2016,03,05,09,44,1000.85
2016,03,05,09,45,1000.87
2016,03,05,09,46,1000.88
2016,03,05,09,47,1000.84
2016,03,05,09,48,1000.77
2016,03,05,09,49,1000.75
2016,03,05,09,50,1000.68
2016,03,05,09,51,1000.64
2016,03,05,09,52,1000.62
2016,03,05,09,53,1000.63
2016,03,05,09,54,1000.66
2016,03,05,09,55,1000.64
2016,03,05,09,56,1000.65
2016,03,05,09,57,1000.66
2016,03,05,09,58,1000.71
2016,03,05,09,59,1000.68
2016,03,05,10,00,1000.66
2016,03,05,10,01,1000.70
2016,03,05,10,02,1000.73
2016,03,05,10,03,1000.75
2016,03,05,10,04,1000.71
2016,03,05,10,05,1000.66
2016,03,05,10,06,1000.62
2016,03,05,10,07,1000.59
2016,03,05,10,08,1000.60
2016,03,05,10,09,1000.63
2016,03,05,10,10,1000.60
2016,03,05,10,11,1000.60
2016,03,05,10,12,1000.63
2016,03,05,10,13,1000.64
2016,03,05,10,14,1000.66
2016,03,05,10,15,1000.64
2016,03,05,10,16,1000.61
2016,03,05,10,17,1000.63
2016,03,05,10,18,1000.64
2016,03,05,10,19,1000.60
2016,03,05,10,20,1000.60
2016,03,05,10,21,1000.61
2016,03,05,10,22,1000.61
2016,03,05,10,23,1000.59
2016,03,05,10,24,1000.56
2016,03,05,10,25,1000.52
2016,03,05,10,26,1000.51
2016,03,05,10,27,1000.53
2016,03,05,10,28,1000.52
2016,03,05,10,29,1000.47
2016,03,05,10,30,1000.42
2016,03,05,10,31,1000.37
2016,03,05,10,32,1000.34
2016,03,05,10,33,1000.32
2016,03,05,10,34,1000.31
2016,03,05,10,35,1000.31
2016,03,05,10,36,1000.31
2016,03,05,10,37,1000.23
2016,03,05,10,38,1000.15
2016,03,05,10,39,1000.16
2016,03,05,10,40,1000.15
2016,03,05,10,41,1000.12
2016,03,05,10,42,1000.08
2016,03,05,10,43,1000.07
2016,03,05,10,44,1000.03
2016,03,05,10,45,1000.02
2016,03,05,10,46,999.99
2016,03,05,10,47,999.99
2016,03,05,10,48,999.98
2016,03,05,10,49,999.97
2016,03,05,10,50,999.99
2016,03,05,10,51,1000.02
2016,03,05,10,52,1000.03
2016,03,05,10,53,1000.03
2016,03,05,10,54,1000.01
2016,03,05,10,55,1000.02
2016,03,05,10,56,1000.03
2016,03,05,10,57,1000.01
2016,03,05,10,58,999.96
2016,03,05,10,59,999.93
2016,03,05,11,00,999.91
2016,03,05,11,01,999.88
2016,03,05,11,02,999.89
2016,03,05,11,03,999.92
2016,03,05,11,04,999.99
2016,03,05,11,05,1000.03
2016,03,05,11,06,1000.07
2016,03,05,11,07,1000.14
2016,03,05,11,08,1000.21
2016,03,05,11,09,1000.22
2016,03,05,11,10,1000.22
2016,03,05,11,11,1000.26
2016,03,05,11,12,1000.23
2016,03,05,11,13,1000.22
2016,03,05,11,14,1000.26
2016,03,05,11,15,1000.27
2016,03,05,11,16,1000.29
2016,03,05,11,17,1000.35
2016,03,05,11,18,1000.37
2016,03,05,11,19,1000.33
2016,03,05,11,20,1000.33
2016,03,05,11,21,1000.32
2016,03,05,11,22,1000.29
2016,03,05,11,23,1000.33
2016,03,05,11,24,1000.33
2016,03,05,11,25,1000.29
2016,03,05,11,26,1000.29
2016,03,05,11,27,1000.29
2016,03,05,11,28,1000.29
2016,03,05,11,29,1000.31
2016,03,05,11,30,1000.31
2016,03,05,11,31,1000.31
2016,03,05,11,32,1000.29
2016,03,05,11,33,1000.29
2016,03,05,11,34,1000.33
2016,03,05,11,35,1000.34
2016,03,05,11,36,1000.36
2016,03,05,11,37,1000.37
2016,03,05,11,38,1000.46
2016,03,05,11,39,1000.53
2016,03,05,11,40,1000.52
2016,03,05,11,41,1000.47
2016,03,05,11,42,1000.49
2016,03,05,11,43,1000.53
2016,03,05,11,44,1000.56
2016,03,05,11,45,1000.58
2016,03,05,11,46,1000.58
2016,03,05,11,47,1000.58
2016,03,05,11,48,1000.58
2016,03,05,11,49,1000.61
2016,03,05,11,50,1000.62
2016,03,05,11,51,1000.61
2016,03,05,11,52,1000.59
2016,03,05,11,53,1000.56
2016,03,05,11,54,1000.54
2016,03,05,11,55,1000.52
2016,03,05,11,56,1000.49
2016,03,05,11,57,1000.50
2016,03,05,11,58,1000.53
2016,03,05,11,59,1000.54
2016,03,05,12,00,1000.52
2016,03,05,12,01,1000.57
2016,03,05,12,02,1000.55
2016,03,05,12,03,1000.49
2016,03,05,12,04,1000.46
2016,03,05,12,05,1000.48
2016,03,05,12,06,1000.49
2016,03,05,12,07,1000.51
2016,03,05,12,08,1000.54
2016,03,05,12,09,1000.52
2016,03,05,12,10,1000.55
2016,03,05,12,11,1000.63
2016,03,05,12,12,1000.68
2016,03,05,12,13,1000.74
2016,03,05,12,14,1000.80
2016,03,05,12,15,1000.81
2016,03,05,12,16,1000.85
2016,03,05,12,17,1000.94
2016,03,05,12,18,1001.04
2016,03,05,12,19,1001.08
2016,03,05,12,20,1001.12
2016,03,05,12,21,1001.15
2016,03,05,12,22,1001.17
2016,03,05,12,23,1001.15
2016,03,05,12,24,1001.08
2016,03,05,12,25,1001.05
2016,03,05,12,26,1001.03
2016,03,05,12,27,1000.98
2016,03,05,12,28,1000.89
2016,03,05,12,29,1000.82
2016,03,05,12,30,1000.76
2016,03,05,12,31,1000.73
2016,03,05,12,32,1000.71
2016,03,05,12,33,1000.64
2016,03,05,12,34,1000.65
2016,03,05,12,35,1000.62
2016,03,05,12,36,1000.54
2016,03,05,12,37,1000.45
2016,03,05,12,38,1000.41
2016,03,05,12,39,1000.39
2016,03,05,12,40,1000.37
2016,03,05,12,41,1000.35
2016,03,05,12,42,1000.32
2016,03,05,12,43,1000.29
2016,03,05,12,44,1000.23
2016,03,05,12,45,1000.16
2016,03,05,12,46,1000.14
2016,03,05,12,47,1000.10
2016,03,05,12,48,1000.05
2016,03,05,12,49,1000.01
2016,03,05,12,50,999.98
2016,03,05,12,51,999.93
2016,03,05,12,52,999.86
2016,03,05,12,53,999.83
2016,03,05,12,54,999.81
2016,03,05,12,55,999.78
2016,03,05,12,56,999.74
2016,03,05,12,57,999.69
2016,03,05,12,58,999.66
2016,03,05,12,59,999.64
2016,03,05,13,00,999.63
2016,03,05,13,01,999.59
2016,03,05,13,02,999.52
2016,03,05,13,03,999.43
2016,03,05,13,04,999.39
2016,03,05,13,05,999.37
2016,03,05,13,06,999.34
2016,03,05,13,07,999.30
2016,03,05,13,08,999.29
2016,03,05,13,09,999.29
2016,03,05,13,10,999.29
2016,03,05,13,11,999.29
2016,03,05,13,12,999.23
2016,03,05,13,13,999.17
2016,03,05,13,14,999.15
2016,03,05,13,15,999.15
2016,03,05,13,16,999.15
2016,03,05,13,17,999.13
2016,03,05,13,18,999.14
2016,03,05,13,19,999.15
2016,03,05,13,20,999.15
2016,03,05,13,21,999.17
2016,03,05,13,22,999.19
2016,03,05,13,23,999.21
2016,03,05,13,24,999.20
2016,03,05,13,25,999.19
2016,03,05,13,26,999.19
2016,03,05,13,27,999.19
2016,03,05,13,28,999.15
2016,03,05,13,29,999.12
2016,03,05,13,30,999.12
2016,03,05,13,31,999.12
2016,03,05,13,32,999.10
2016,03,05,13,33,999.05
2016,03,05,13,34,999.00
2016,03,05,13,35,999.01
2016,03,05,13,36,999.00
2016,03,05,13,37,998.99
2016,03,05,13,38,999.01
2016,03,05,13,39,998.98
2016,03,05,13,40,998.93
2016,03,05,13,41,998.94
2016,03,05,13,42,998.95
2016,03,05,13,43,998.95
2016,03,05,13,44,998.95
2016,03,05,13,45,998.95
2016,03,05,13,46,998.95
2016,03,05,13,47,998.95
2016,03,05,13,48,998.90
2016,03,05,13,49,998.87
2016,03,05,13,50,998.86
2016,03,05,13,51,998.83
2016,03,05,13,52,998.79
2016,03,05,13,53,998.74
2016,03,05,13,54,998.73
2016,03,05,13,55,998.75
2016,03,05,13,56,998.73
2016,03,05,13,57,998.71
2016,03,05,13,58,998.69
2016,03,05,13,59,998.70
2016,03,05,14,00,998.69
2016,03,05,14,01,998.66
2016,03,05,14,02,998.65
2016,03,05,14,03,998.65
2016,03,05,14,04,998.61
2016,03,05,14,05,998.58
2016,03,05,14,06,998.58
2016,03,05,14,07,998.54
2016,03,05,14,08,998.51
2016,03,05,14,09,998.49
2016,03,05,14,10,998.46
2016,03,05,14,11,998.42
2016,03,05,14,12,998.41
2016,03,05,14,13,998.37
2016,03,05,14,14,998.32
2016,03,05,14,15,998.27
2016,03,05,14,16,998.24
2016,03,05,14,17,998.22
2016,03,05,14,18,998.19
2016,03,05,14,19,998.17
2016,03,05,14,20,998.15
2016,03,05,14,21,998.12
2016,03,05,14,22,998.07
2016,03,05,14,23,998.02
2016,03,05,14,24,998.00
2016,03,05,14,25,997.97
2016,03,05,14,26,997.94
2016,03,05,14,27,997.92
2016,03,05,14,28,997.90
2016,03,05,14,29,997.86
2016,03,05,14,30,997.81
2016,03,05,14,31,997.80
2016,03,05,14,32,997.72
2016,03,05,14,33,997.63
2016,03,05,14,34,997.56
2016,03,05,14,35,997.45
2016,03,05,14,36,997.34
2016,03,05,14,37,997.27
2016,03,05,14,38,997.22
2016,03,05,14,39,997.15
2016,03,05,14,40,997.12
2016,03,05,14,41,997.06
2016,03,05,14,42,997.04
2016,03,05,14,43,996.99
2016,03,05,14,44,996.95
2016,03,05,14,45,996.93
2016,03,05,14,46,996.84
2016,03,05,14,47,996.76
2016,03,05,14,48,996.71
2016,03,05,14,49,996.68
2016,03,05,14,50,996.64
2016,03,05,14,51,996.58
2016,03,05,14,52,996.57
2016,03,05,14,53,996.54
2016,03,05,14,54,996.51
2016,03,05,14,55,996.51
2016,03,05,14,56,996.49
2016,03,05,14,57,996.43
2016,03,05,14,58,996.36
2016,03,05,14,59,996.32
2016,03,05,15,00,996.25
2016,03,05,15,01,996.19
2016,03,05,15,02,996.19
2016,03,05,15,03,996.21
2016,03,05,15,04,996.21
2016,03,05,15,05,996.21
2016,03,05,15,06,996.21
2016,03,05,15,07,996.21
2016,03,05,15,08,996.21
2016,03,05,15,09,996.19
2016,03,05,15,10,996.17
2016,03,05,15,11,996.14
2016,03,05,15,12,996.11
2016,03,05,15,13,996.07
2016,03,05,15,14,996.06
2016,03,05,15,15,996.01
2016,03,05,15,16,995.95
2016,03,05,15,17,995.94
2016,03,05,15,18,995.92
2016,03,05,15,19,995.88
2016,03,05,15,20,995.89
2016,03,05,15,21,995.90
2016,03,05,15,22,995.88
2016,03,05,15,23,995.85
2016,03,05,15,24,995.80
2016,03,05,15,25,995.75
2016,03,05,15,26,995.70
2016,03,05,15,27,995.65
2016,03,05,15,28,995.59
2016,03,05,15,29,995.54
2016,03,05,15,30,995.51
2016,03,05,15,31,995.46
2016,03,05,15,32,995.39
2016,03,05,15,33,995.32
2016,03,05,15,34,995.31
2016,03,05,15,35,995.29
2016,03,05,15,36,995.28
2016,03,05,15,37,995.33
2016,03,05,15,38,995.36
2016,03,05,15,39,995.40
2016,03,05,15,40,995.36
2016,03,05,15,41,995.27
2016,03,05,15,42,995.20
2016,03,05,15,43,995.14
2016,03,05,15,44,995.12
2016,03,05,15,45,995.10
2016,03,05,15,46,995.05
2016,03,05,15,47,995.02
2016,03,05,15,48,995.00
2016,03,05,15,49,994.99
2016,03,05,15,50,994.97
2016,03,05,15,51,994.90
2016,03,05,15,52,994.85
2016,03,05,15,53,994.82
2016,03,05,15,54,994.79
2016,03,05,15,55,994.71
2016,03,05,15,56,994.67
2016,03,05,15,57,994.59
2016,03,05,15,58,994.55
2016,03,05,15,59,994.55
2016,03,05,16,00,994.46
2016,03,05,16,01,994.43
2016,03,05,16,02,994.43
2016,03,05,16,03,994.41
2016,03,05,16,04,994.38
2016,03,05,16,05,994.35
2016,03,05,16,06,994.33
2016,03,05,16,07,994.27
2016,03,05,16,08,994.26
2016,03,05,16,09,994.23
2016,03,05,16,10,994.18
2016,03,05,16,11,994.18
2016,03,05,16,12,994.12
2016,03,05,16,13,994.07
2016,03,05,16,14,994.04
2016,03,05,16,15,994.01
2016,03,05,16,16,993.99
2016,03,05,16,17,993.86
2016,03,05,16,18,993.73
2016,03,05,16,19,993.72
2016,03,05,16,20,993.74
2016,03,05,16,21,993.72
2016,03,05,16,22,993.74
2016,03,05,16,23,993.81
2016,03,05,16,24,993.86
2016,03,05,16,25,993.85
2016,03,05,16,26,993.86
2016,03,05,16,27,993.85
2016,03,05,16,28,993.82